User: anonymous   Login
Location: Unspecified
(0.0000°N, 0.0000°E)
Time: 23:29:23
(UTC+00:00)
Language:

NO-84 - Orbit

View from above orbital plane
View from above orbital plane
View from above satellite
View from above satellite

Ground track
Ground track

The orbit data is extracted from the following two-line orbital elements,

1 40654U 15025D   21020.34240607  .00020235  00000-0  18806-3 0  1645
2 40654  54.9841  16.3339 0099363  35.7234 325.0495 15.61303116202819
Epoch (UTC): 20 January 2021 08:13:03
Eccentricity: 0.0099363
inclination: 54.9841°
perigee height: 317 km
apogee height: 451 km
right ascension of ascending node: 16.3339°
argument of perigee: 35.7234°
revolutions per day: 15.61303116
mean anomaly at epoch: 325.0495°
orbit number at epoch: 20281

The dashed part of the orbit path shows where the satellite is in the earth's shadow,  

DLR